Vorticity
8 8 7 8 8 8 9 9 10 11 12 11 10 10 8 8 7 8 7 8 9 6 4 2 3 6 6 8 8 9 9 7 7 10 12 1 -6 4 9 8 8 6 5 6 5 4 4 6 6 3 3 3 3 4 3 2 7 21 25 13 7 8 9 8 5 2 1 3 5 3 1 2 3 6 7 7 8 7 5 5 6 8 9 7 6 3 2 3
9 9 9 9 8 8 8 8 9 9 11 12 12 11 10 9 8 8 8 7 8 8 7 4 3 3 6 8 8 7 8 10 5 5 15 7 -6 -0 5 7 9 7 6 6 6 6 5 8 8 5 3 3 3 2 4 4 11 34 32 12 9 11 9 6 3 3 2 3 2 1 3 3 4 7 8 9 9 6 5 6 6 9 10 8 7 6 3 2
10 10 10 9 9 8 8 7 7 8 8 10 11 12 11 10 9 8 8 9 8 8 9 7 5 3 5 7 8 8 6 10 7 4 13 10 -2 -3 1 5 7 8 7 5 7 8 5 7 9 5 3 2 5 2 4 7 9 33 34 14 12 9 4 5 5 4 2 4 1 0 3 3 6 9 9 9 9 7 6 5 6 8 6 7 11 8 2 2
8 8 8 7 8 8 8 7 7 7 7 7 8 10 11 10 11 10 8 9 9 9 9 9 7 4 4 5 7 8 6 7 6 7 11 9 3 -2 -2 2 4 7 8 6 8 9 4 5 6 5 4 1 5 3 4 6 6 23 25 11 12 7 4 7 6 4 1 4 3 -1 2 4 5 9 11 10 8 8 6 7 8 6 4 8 12 8 2 2
7 6 6 6 7 8 9 9 8 8 7 7 7 7 9 9 10 11 10 8 9 9 9 9 8 7 5 4 5 7 8 5 4 10 10 6 7 1 -2 1 1 4 7 8 10 9 5 6 6 5 5 2 4 4 2 5 5 11 13 11 12 8 8 8 7 7 3 4 3 -1 2 5 4 9 13 11 10 9 8 11 12 6 4 8 10 7 3 2
6 6 6 7 7 8 9 10 10 10 10 8 8 7 8 9 9 9 10 9 8 9 10 10 9 9 7 5 5 5 8 7 4 11 11 5 7 4 -0 -1 1 3 4 9 10 8 5 5 6 6 5 3 2 4 4 6 5 4 9 16 14 9 8 5 7 8 2 4 4 -1 2 5 3 7 12 10 11 11 8 13 14 8 6 9 8 5 2 2
6 6 7 8 8 9 10 11 11 12 12 11 10 9 8 8 9 9 9 10 9 9 9 10 10 9 8 6 5 4 7 8 6 10 10 7 7 6 2 -1 -0 1 3 9 10 8 5 3 5 5 5 4 3 3 3 3 3 2 8 17 15 11 6 2 6 6 2 5 5 1 3 5 3 7 11 9 9 9 8 13 14 8 6 9 8 5 3 3
6 6 7 9 10 11 11 12 12 13 13 13 13 12 11 9 10 10 9 10 10 10 9 10 10 10 9 7 6 4 5 7 7 8 8 8 9 7 4 0 -1 -1 1 6 9 7 2 3 5 5 4 5 4 3 2 2 3 3 6 14 16 13 6 2 5 4 4 5 4 3 5 6 5 7 10 8 7 7 8 13 14 11 7 9 7 4 3 2
6 7 9 10 11 12 12 13 14 15 16 16 15 14 14 12 12 12 11 10 10 11 10 11 11 11 10 8 6 5 5 6 7 8 6 8 10 9 6 2 -2 -2 -2 2 7 8 4 2 3 6 6 4 3 3 4 2 3 5 4 8 15 17 10 3 5 4 4 5 4 3 5 7 5 6 9 10 8 6 7 9 13 12 8 9 7 3 4 3
7 9 10 11 12 13 15 16 17 20 20 20 19 17 16 15 14 14 14 13 12 12 12 11 12 12 11 9 8 6 5 6 6 8 6 7 9 10 9 5 1 -2 -3 -1 4 7 6 3 2 6 7 5 2 3 4 2 2 4 2 5 11 20 19 6 4 6 2 3 7 5 3 7 6 3 6 10 8 6 6 7 10 10 9 10 6 5 5 4
9 10 11 12 14 16 17 18 20 21 22 23 23 22 20 20 20 18 16 14 13 13 13 13 12 13 12 10 8 7 7 7 6 7 7 7 7 8 11 8 4 -0 -2 -2 -1 3 4 4 5 5 5 6 4 2 3 2 3 2 2 4 4 15 23 12 5 7 4 2 7 8 2 4 8 4 5 10 8 7 7 6 8 9 9 10 7 6 5 5
10 11 13 14 16 18 18 17 17 17 17 19 21 23 22 21 21 20 18 16 15 14 14 14 14 13 12 11 9 8 9 8 6 7 7 7 6 7 9 11 9 3 0 -2 -3 1 1 2 5 5 4 5 4 3 3 2 3 1 0 1 0 7 12 12 11 5 7 5 3 11 5 -1 5 5 6 11 9 8 8 6 6 8 9 9 8 5 3 5
11 13 15 17 17 16 15 14 12 11 10 11 13 16 18 19 19 19 18 16 14 14 15 15 15 14 12 11 11 9 9 8 7 7 7 8 7 7 7 9 11 8 4 -0 -2 -0 -0 0 1 6 8 5 4 4 3 3 3 1 1 1 1 2 1 11 18 5 8 10 -1 7 9 -1 1 3 4 11 12 8 8 7 5 6 7 9 9 5 4 5
12 15 16 17 15 11 10 10 8 8 8 10 11 11 13 16 17 18 19 17 15 14 15 17 16 15 13 12 11 10 10 9 8 7 6 8 7 7 7 7 10 11 8 3 1 0 1 -0 -2 4 7 6 7 5 3 3 4 2 2 2 -3 -1 2 10 19 12 9 10 2 7 11 4 0 1 4 8 12 9 7 8 5 5 6 7 9 6 5 4
14 16 17 15 11 9 10 10 9 8 9 11 13 12 11 12 14 15 16 17 17 16 16 19 17 15 14 13 11 11 11 9 9 8 6 7 7 7 6 6 8 11 11 6 4 2 1 0 -1 2 2 3 6 7 5 1 4 4 2 7 -3 -4 5 2 9 15 10 5 8 15 13 8 2 -0 4 5 10 11 8 9 6 5 6 7 9 8 6 4
15 16 15 12 9 10 11 12 11 10 9 11 13 13 12 12 13 13 14 15 16 16 17 19 19 16 14 15 13 12 11 9 9 9 8 7 7 8 7 6 7 9 12 9 6 3 1 1 1 1 -1 0 5 7 6 1 6 2 -3 12 7 -4 3 2 2 8 7 1 10 25 16 7 6 1 3 4 7 11 9 10 8 5 6 8 9 9 7 4
15 15 12 9 9 10 12 12 13 14 13 12 12 12 12 12 12 13 13 13 14 14 15 18 20 17 13 15 15 13 12 10 10 9 9 8 7 8 7 8 7 7 11 10 8 5 3 3 1 3 0 -1 4 7 7 3 7 3 -6 7 10 -3 -1 7 7 4 4 -2 9 37 24 3 7 3 3 5 5 10 10 9 9 6 6 8 9 8 7 4
14 13 11 9 10 11 12 13 15 17 18 18 14 12 12 12 12 12 13 14 14 13 13 14 18 18 14 14 15 15 14 10 10 10 9 9 7 8 7 8 7 7 9 8 8 7 6 5 1 4 3 -1 -1 4 10 6 4 6 -1 3 8 2 -3 0 9 8 5 0 5 24 16 4 11 5 1 5 5 8 9 9 10 7 5 6 8 7 6 5
12 12 12 11 12 12 12 14 15 16 18 20 17 15 15 15 14 13 13 14 14 13 13 13 15 17 16 17 15 15 16 12 11 11 10 10 8 8 7 8 8 6 7 7 8 9 8 7 3 3 3 -0 -3 -0 7 7 7 8 2 3 3 3 6 0 4 9 5 7 6 5 11 12 10 5 2 3 6 8 9 9 10 9 6 5 6 7 6 5
7 6 8 11 12 12 12 13 14 14 16 18 18 17 17 17 16 15 15 14 14 13 12 12 14 15 16 18 16 15 16 14 11 11 11 11 9 9 7 7 9 7 7 6 7 9 9 8 6 5 3 2 2 -0 -0 2 9 11 3 6 3 -1 10 6 3 8 3 9 8 12 43 39 8 3 3 1 5 8 9 9 10 11 9 5 4 6 6 6
4 1 3 8 12 12 13 13 13 13 14 15 15 16 17 17 17 16 16 15 15 14 12 11 12 14 14 16 16 16 16 15 13 11 11 11 9 9 8 7 8 8 8 5 5 9 10 10 7 6 6 4 3 1 -0 -1 4 10 5 6 7 2 8 3 0 7 4 7 4 10 45 42 10 5 4 2 5 6 8 8 8 11 10 6 4 5 6 5
6 3 3 7 11 13 13 13 14 13 12 14 14 14 15 16 17 17 17 15 14 14 13 12 10 13 14 14 16 16 16 17 15 12 12 12 10 9 9 8 8 8 8 7 7 7 7 10 8 6 7 6 4 2 3 2 -1 6 8 5 5 3 6 4 1 7 5 6 7 4 10 12 11 11 4 4 6 4 8 8 6 9 9 8 5 4 7 6
7 6 6 9 11 12 13 14 14 12 12 14 14 15 14 15 17 16 16 16 15 13 12 11 10 12 14 13 15 16 15 16 15 14 13 12 11 9 9 9 9 8 8 8 7 7 8 9 7 8 10 7 6 3 3 5 1 2 7 7 7 4 6 7 5 8 5 -0 7 9 -0 -4 10 17 5 1 5 4 6 8 7 7 7 8 8 6 6 6
7 7 7 11 13 12 14 15 13 11 13 16 17 18 17 17 18 18 17 16 15 14 12 11 10 12 13 13 15 15 15 15 14 14 13 13 12 10 9 9 9 8 9 9 7 8 8 7 7 9 11 8 8 6 2 4 5 2 3 5 9 6 3 6 7 6 6 3 3 7 6 0 5 17 14 3 4 5 5 7 7 7 7 6 8 9 7 6
8 8 8 12 14 13 15 14 12 12 15 19 19 19 19 17 17 19 19 16 15 15 13 11 10 11 12 12 13 14 15 16 14 13 12 12 12 11 10 8 8 9 8 9 8 9 7 6 11 11 8 8 9 9 5 3 5 5 4 2 6 7 1 5 8 3 7 9 2 1 6 7 3 7 14 10 5 4 6 7 4 6 10 8 8 9 8 8
10 10 10 13 14 13 15 13 11 15 18 19 20 21 22 19 19 21 21 18 15 15 15 13 11 12 12 12 13 13 15 15 13 13 12 12 12 11 11 8 8 9 8 8 8 10 8 7 11 10 8 9 8 8 7 4 4 6 6 2 3 6 2 5 8 8 12 10 7 7 1 4 8 4 10 20 13 3 5 8 4 3 8 10 10 8 7 8
13 12 12 15 14 14 14 11 12 16 16 19 21 20 19 19 23 24 22 21 18 15 15 15 13 13 11 12 14 13 14 16 15 14 12 11 12 10 10 10 9 9 8 8 9 10 10 9 10 9 8 9 7 8 8 6 5 5 6 4 4 5 2 3 3 4 10 5 7 12 -1 1 13 5 5 22 21 6 -0 5 6 4 6 10 10 8 6 6
14 14 14 15 14 14 13 10 14 15 13 18 21 22 21 20 24 23 19 20 18 15 16 15 12 12 12 11 13 12 12 16 15 14 13 11 12 11 10 11 9 8 7 8 11 12 10 10 10 11 9 9 9 7 6 7 4 4 6 5 4 3 1 4 1 -2 4 4 5 7 -2 1 13 7 1 8 14 8 -1 2 8 6 6 9 10 9 7 6
14 16 16 15 14 14 11 10 14 13 12 15 17 21 20 17 19 19 20 19 14 15 16 15 12 11 13 11 11 12 13 15 13 13 14 10 10 11 9 10 10 9 7 4 9 10 8 8 8 8 9 9 9 7 7 8 4 3 7 7 6 5 1 3 2 -2 3 5 4 8 3 -1 7 11 6 2 4 6 5 5 7 7 6 6 8 8 7 9
15 17 17 14 13 13 10 10 12 11 12 11 12 17 16 19 19 15 19 16 10 18 18 15 15 13 14 12 12 13 12 12 13 13 14 11 11 11 8 10 10 8 6 4 8 9 6 8 8 7 9 9 7 8 8 7 5 4 5 5 7 6 1 1 3 1 3 5 3 7 8 -1 2 9 9 8 6 4 7 8 8 8 6 4 6 8 7 10
15 17 17 14 13 12 9 10 11 10 11 10 10 13 12 13 8 4 15 12 7 21 19 13 15 13 15 14 11 15 12 11 14 13 14 12 11 12 10 12 11 9 8 5 8 11 9 11 11 7 8 9 9 10 9 6 6 8 4 2 5 7 4 2 5 4 1 4 7 9 10 3 0 3 6 10 11 7 5 8 10 9 6 4 4 6 8 9
15 17 17 14 12 12 9 9 11 9 10 10 10 12 8 3 -3 0 18 16 10 21 20 12 13 12 16 16 12 17 14 12 13 12 14 14 11 12 10 11 11 8 9 11 10 8 7 9 10 9 8 9 9 9 10 7 7 9 4 2 5 7 8 3 1 6 4 0 4 7 9 8 3 1 1 4 9 13 13 10 9 8 5 4 4 5 9 9
15 17 18 14 11 11 8 8 9 8 10 9 8 13 12 7 6 6 13 14 11 18 18 16 17 13 15 17 16 16 14 14 14 11 13 12 11 13 10 11 12 3 4 14 13 6 8 10 7 7 7 8 9 9 9 8 7 10 5 4 6 2 6 8 -1 -0 4 0 1 5 7 7 6 4 -0 -1 1 6 14 16 13 11 8 2 0 3 8 9
14 17 18 13 11 11 8 7 7 6 9 9 6 12 11 9 12 9 9 11 8 12 16 16 18 15 13 16 17 15 14 15 14 13 13 12 13 13 12 14 13 6 4 8 9 5 6 14 14 10 9 7 9 9 9 9 7 9 9 6 7 2 1 9 8 0 1 2 0 4 7 7 7 8 5 2 -0 -1 4 10 12 17 17 6 -1 1 6 10
15 17 18 14 10 11 10 7 6 4 7 9 7 9 9 8 13 10 9 8 3 9 16 15 15 16 15 16 17 15 15 16 14 15 11 9 15 13 11 15 11 10 10 6 14 13 -1 7 13 7 9 8 8 10 9 11 9 6 10 9 7 8 4 2 8 7 4 7 4 -0 6 10 6 10 13 7 5 5 2 1 4 12 16 11 7 6 6 8
16 16 17 14 9 11 11 8 6 4 5 9 8 7 7 9 12 11 10 7 2 4 11 14 13 14 14 16 17 14 15 18 16 16 11 4 12 13 8 13 11 10 9 -0 14 20 3 15 22 6 8 10 5 12 10 9 14 8 7 11 7 8 9 2 4 7 2 4 7 0 3 11 4 2 9 7 6 10 9 5 3 5 10 16 22 24 16 10
17 16 17 14 8 9 11 9 8 4 3 7 9 6 6 8 9 12 12 10 5 2 6 10 10 12 14 14 18 17 15 19 14 17 22 11 14 18 8 11 12 9 9 0 7 12 -4 11 26 6 6 14 4 9 13 7 11 13 5 7 9 6 7 6 3 7 7 6 7 2 0 7 6 1 3 2 3 6 8 11 9 8 15 17 16 18 17 15
18 16 17 14 8 8 10 10 9 6 3 5 8 7 5 6 7 10 12 12 10 5 3 8 11 14 12 9 20 20 11 17 14 13 22 13 15 24 13 10 14 9 11 7 9 16 -1 4 31 16 -1 13 11 3 13 12 6 12 10 5 10 6 6 12 5 2 8 11 15 15 8 7 7 6 6 4 3 2 3 8 10 12 14 5 -6 -2 5 8
17 17 17 12 8 9 10 10 10 8 5 3 7 8 5 6 6 7 11 14 14 8 2 5 12 13 8 6 18 17 5 12 15 11 16 11 13 24 17 14 17 12 13 10 8 21 8 -7 27 41 5 1 17 6 5 15 9 10 13 8 10 6 3 10 9 6 6 5 13 18 10 6 6 5 6 6 4 2 1 2 6 11 11 5 0 3 7 4
17 18 17 12 9 10 9 9 9 9 7 4 5 7 6 7 6 6 10 13 17 16 6 4 11 12 8 7 10 9 6 10 10 8 14 14 11 16 18 18 19 14 16 17 9 17 18 -13 -2 47 33 -3 10 15 3 10 14 10 11 10 9 7 5 5 3 7 6 -3 5 13 9 7 8 8 11 11 8 5 3 1 2 7 9 9 10 10 10 8
18 18 16 11 9 9 8 9 10 10 9 6 4 5 6 8 7 6 7 10 16 21 13 5 8 11 9 8 5 5 8 7 6 6 9 12 11 10 13 16 20 19 16 21 15 9 23 5 -22 14 46 24 16 17 3 4 13 10 10 13 11 8 7 5 1 4 5 -2 1 7 8 6 5 11 16 12 9 8 7 5 4 6 7 8 11 11 11 10
18 17 16 12 9 8 8 9 10 10 10 8 5 5 7 8 9 7 5 7 11 16 16 10 8 9 7 7 6 3 4 3 5 7 4 7 11 10 11 12 16 22 16 20 23 9 14 18 -10 -16 14 28 27 20 6 4 10 8 6 8 13 16 15 9 4 4 4 5 2 -2 3 6 3 12 18 12 9 11 10 6 4 8 8 6 8 10 10 9
17 17 16 12 9 8 8 8 10 10 9 9 7 6 8 9 11 9 5 7 9 10 16 16 10 8 9 8 7 4 4 5 4 6 5 6 9 9 11 11 12 20 19 15 22 18 9 14 10 -8 -11 2 15 19 12 7 9 10 11 13 9 9 17 16 9 7 10 15 14 4 5 6 0 4 13 13 10 10 10 6 3 8 10 7 7 9 9 10
17 17 15 11 10 8 8 9 11 10 8 9 8 8 10 10 10 10 6 6 8 7 13 18 13 11 11 8 8 7 5 7 8 6 6 6 7 8 9 12 13 16 20 18 19 23 17 10 8 4 5 12 16 17 13 9 10 3 3 20 17 1 7 13 6 6 7 8 10 6 6 9 5 4 10 14 12 9 9 7 2 3 7 9 9 8 9 10
17 16 13 12 12 9 8 10 11 9 6 7 10 10 10 10 8 8 8 6 6 5 8 14 14 14 13 8 10 12 5 6 11 9 7 6 4 5 5 8 14 14 14 17 18 20 19 16 12 5 8 20 25 24 15 8 16 9 -7 6 17 7 8 10 7 9 8 7 11 6 4 8 7 3 5 9 11 9 7 8 5 2 3 8 10 9 9 10
16 15 13 13 12 9 8 9 10 10 7 5 10 11 8 9 8 7 8 8 7 6 6 10 12 13 15 11 10 16 12 8 9 8 8 8 5 5 3 2 8 12 13 14 18 21 15 12 18 9 -5 4 19 28 24 9 13 21 10 3 6 10 12 8 7 12 10 10 15 9 4 6 6 8 10 10 10 9 6 7 8 5 3 5 9 10 10 10
15 13 12 12 12 11 9 10 10 11 9 7 10 11 7 8 8 6 8 9 8 9 7 8 10 10 14 14 11 14 16 11 8 4 4 6 5 6 6 5 4 6 12 13 15 24 18 6 15 15 -1 -3 7 18 26 17 9 18 22 13 7 9 13 9 6 10 9 5 7 8 7 5 3 5 9 10 9 9 7 4 4 10 17 14 7 6 9 9
14 12 12 10 11 13 11 12 12 9 8 8 9 10 7 7 8 7 9 9 7 10 11 10 11 9 10 14 13 14 16 14 11 8 6 5 6 7 8 11 9 5 8 12 13 24 23 7 10 16 6 2 5 10 18 17 12 14 18 17 12 7 11 13 7 7 10 9 7 10 14 15 9 -0 -4 1 6 9 9 6 4 13 25 22 6 0 5 7
13 12 12 9 10 14 12 12 12 9 8 8 7 8 8 8 10 10 9 9 7 9 12 11 11 10 9 10 12 13 14 14 12 12 12 10 9 8 6 7 10 8 8 8 10 23 25 10 9 15 8 4 7 7 9 10 12 15 13 12 12 8 9 14 11 7 6 4 2 2 6 16 20 12 4 3 4 6 6 5 7 13 21 18 2 -5 2 6
12 11 11 9 11 15 13 11 12 10 8 7 6 7 7 7 10 11 8 8 8 8 10 11 12 12 10 9 9 11 12 12 11 11 13 14 13 12 9 7 7 7 9 8 8 18 19 10 13 16 7 4 7 5 5 9 11 15 13 9 8 10 11 10 10 13 10 5 3 -3 -8 0 10 13 15 14 10 8 3 -1 2 10 21 22 3 -7 1 5
12 11 10 10 12 16 15 12 11 8 7 7 6 6 7 8 10 12 9 7 9 9 8 9 11 12 12 11 9 8 10 11 11 12 11 11 13 14 14 16 14 9 8 8 8 14 14 8 16 21 9 4 9 7 4 5 7 12 16 12 9 11 13 9 6 9 12 11 11 8 1 -0 -1 -0 6 12 14 14 8 2 1 3 16 25 10 -1 7 8
13 11 9 11 13 15 16 13 8 5 7 8 8 7 7 9 11 12 11 8 9 10 9 9 10 10 11 14 13 10 9 10 13 17 17 13 11 12 12 17 24 21 14 9 7 11 14 9 13 22 15 6 11 14 8 2 4 9 12 11 10 7 5 9 10 7 7 7 8 12 13 12 9 3 1 4 7 10 9 8 8 4 9 21 15 5 11 17
Height
5865 5864 5863 5863 5862 5862 5861 5860 5860 5860 5860 5861 5861 5861 5861 5862 5863 5863 5864 5865 5866 5867 5868 5869 5870 5871 5872 5872 5873 5874 5876 5877 5878 5880 5881 5883 5886 5886 5887 5888 5889 5890 5891 5892 5893 5894 5895 5897 5898 5899 5900 5900 5901 5901 5900 5900 5899 5898 5898 5898 5898 5900 5901 5902 5904 5904 5906 5907 5908 5909 5910 5911 5912 5912 5913 5913 5914 5914 5914 5915 5916 5917 5918 5919 5919 5919 5918 5920
5864 5863 5862 5861 5861 5860 5859 5858 5858 5857 5857 5858 5858 5858 5859 5859 5860 5860 5861 5862 5863 5864 5865 5866 5867 5869 5870 5871 5871 5872 5874 5875 5876 5878 5880 5883 5884 5885 5886 5886 5888 5889 5890 5891 5892 5893 5895 5897 5898 5899 5899 5900 5900 5901 5900 5900 5899 5898 5897 5898 5898 5900 5902 5903 5904 5905 5906 5907 5908 5909 5910 5911 5912 5912 5913 5913 5914 5914 5914 5915 5916 5917 5918 5920 5921 5920 5919 5920
5862 5861 5860 5859 5859 5858 5857 5856 5856 5855 5855 5854 5854 5855 5855 5856 5856 5857 5858 5859 5860 5861 5862 5864 5865 5866 5867 5869 5870 5870 5872 5873 5874 5876 5879 5881 5882 5884 5885 5885 5887 5888 5889 5890 5892 5893 5895 5896 5898 5898 5899 5900 5900 5900 5900 5900 5899 5898 5897 5898 5900 5901 5903 5904 5905 5906 5907 5907 5908 5909 5910 5911 5912 5912 5913 5913 5914 5914 5914 5915 5916 5917 5918 5920 5921 5920 5920 5921
5859 5859 5858 5857 5856 5855 5855 5854 5853 5852 5852 5851 5851 5851 5852 5852 5853 5854 5855 5856 5857 5858 5859 5860 5862 5863 5865 5866 5867 5869 5869 5870 5872 5875 5878 5879 5880 5882 5883 5884 5886 5887 5888 5890 5891 5893 5894 5895 5897 5898 5899 5899 5900 5900 5900 5900 5900 5899 5898 5900 5901 5902 5903 5904 5906 5906 5907 5908 5908 5909 5910 5911 5912 5913 5913 5914 5914 5914 5915 5916 5916 5916 5918 5920 5921 5921 5920 5921
5857 5856 5855 5854 5853 5852 5852 5851 5850 5850 5849 5848 5848 5847 5848 5848 5849 5850 5851 5852 5853 5855 5856 5857 5859 5860 5862 5863 5865 5866 5867 5867 5870 5873 5876 5877 5879 5880 5881 5883 5885 5886 5887 5889 5891 5892 5893 5894 5896 5897 5898 5899 5900 5900 5900 5900 5900 5901 5900 5901 5902 5903 5904 5905 5906 5907 5908 5909 5909 5910 5910 5911 5912 5913 5914 5914 5914 5915 5915 5917 5917 5917 5918 5920 5921 5921 5921 5922
5855 5853 5852 5851 5850 5849 5848 5847 5847 5846 5846 5845 5844 5844 5844 5844 5844 5846 5847 5848 5849 5851 5852 5853 5855 5857 5858 5860 5861 5863 5864 5866 5868 5871 5873 5875 5877 5878 5880 5882 5884 5885 5886 5888 5889 5891 5891 5892 5894 5896 5898 5898 5899 5900 5901 5901 5901 5901 5901 5902 5902 5903 5905 5906 5906 5907 5908 5909 5910 5910 5911 5912 5912 5913 5914 5914 5915 5915 5916 5917 5918 5919 5919 5920 5921 5922 5922 5923
5852 5851 5849 5848 5846 5845 5844 5843 5842 5842 5841 5841 5840 5840 5839 5839 5840 5841 5842 5844 5845 5846 5848 5850 5851 5853 5855 5856 5858 5859 5861 5864 5866 5868 5870 5872 5874 5876 5878 5881 5882 5884 5885 5887 5888 5889 5890 5891 5893 5895 5897 5898 5899 5900 5901 5901 5901 5901 5902 5902 5903 5904 5905 5906 5907 5907 5908 5909 5909 5911 5912 5912 5913 5913 5914 5914 5915 5915 5917 5918 5918 5919 5920 5922 5923 5923 5923 5923
5849 5847 5846 5844 5843 5841 5840 5839 5838 5837 5837 5836 5836 5836 5835 5835 5835 5836 5837 5839 5840 5841 5843 5845 5847 5849 5851 5852 5854 5856 5858 5861 5863 5865 5867 5869 5872 5874 5877 5879 5881 5883 5884 5885 5886 5887 5888 5890 5892 5894 5895 5897 5898 5899 5900 5901 5901 5902 5902 5903 5904 5905 5906 5906 5907 5907 5908 5909 5910 5911 5912 5913 5913 5913 5914 5914 5915 5916 5917 5918 5918 5919 5921 5923 5924 5924 5923 5924
5846 5844 5842 5840 5839 5837 5836 5835 5833 5832 5832 5831 5831 5831 5831 5830 5830 5831 5832 5833 5835 5837 5838 5840 5843 5845 5847 5848 5850 5851 5854 5858 5860 5862 5864 5866 5869 5872 5874 5877 5878 5880 5882 5884 5884 5886 5887 5888 5890 5893 5894 5896 5897 5899 5900 5901 5901 5902 5902 5903 5904 5905 5906 5906 5907 5907 5908 5909 5910 5911 5912 5913 5913 5914 5914 5914 5915 5916 5917 5918 5919 5920 5921 5923 5924 5925 5924 5924
5842 5840 5838 5837 5835 5833 5832 5830 5829 5828 5827 5826 5826 5826 5826 5826 5826 5826 5827 5829 5830 5832 5833 5835 5838 5840 5843 5844 5846 5847 5851 5854 5856 5859 5861 5863 5866 5868 5871 5874 5876 5878 5880 5882 5883 5884 5885 5887 5889 5892 5894 5895 5897 5898 5899 5900 5901 5902 5902 5903 5903 5904 5905 5906 5907 5908 5909 5910 5911 5911 5912 5912 5913 5914 5914 5914 5915 5916 5917 5918 5919 5920 5921 5923 5924 5926 5926 5926
5839 5837 5835 5833 5831 5829 5828 5826 5825 5824 5823 5822 5822 5821 5821 5821 5822 5822 5823 5824 5825 5827 5829 5831 5833 5835 5838 5840 5841 5844 5848 5850 5852 5855 5858 5860 5863 5865 5868 5871 5873 5875 5878 5880 5881 5882 5884 5886 5889 5891 5893 5894 5896 5897 5899 5900 5901 5902 5902 5903 5903 5904 5905 5906 5907 5908 5908 5909 5910 5911 5912 5912 5913 5914 5914 5914 5915 5916 5917 5919 5920 5920 5921 5923 5924 5926 5926 5927
5837 5834 5832 5830 5828 5826 5824 5823 5822 5820 5819 5819 5818 5818 5818 5818 5818 5818 5819 5820 5821 5822 5824 5826 5828 5830 5833 5834 5837 5840 5844 5846 5849 5852 5854 5857 5859 5862 5865 5868 5871 5873 5875 5877 5879 5881 5883 5886 5888 5890 5892 5893 5895 5897 5898 5899 5900 5901 5902 5902 5903 5903 5904 5905 5905 5906 5907 5908 5910 5911 5911 5912 5913 5914 5914 5915 5916 5917 5918 5919 5920 5921 5922 5923 5924 5926 5927 5928
5834 5832 5829 5827 5825 5823 5822 5820 5819 5818 5817 5816 5815 5815 5815 5815 5815 5815 5815 5816 5817 5818 5820 5822 5824 5826 5828 5830 5833 5836 5840 5843 5845 5848 5851 5854 5856 5859 5862 5865 5868 5871 5873 5875 5877 5880 5882 5884 5886 5889 5891 5893 5894 5896 5898 5899 5900 5901 5901 5902 5902 5902 5903 5903 5903 5906 5907 5907 5909 5910 5910 5911 5912 5914 5914 5915 5916 5917 5918 5919 5920 5921 5922 5923 5924 5926 5928 5928
5831 5829 5827 5825 5823 5821 5820 5818 5817 5816 5815 5814 5813 5812 5812 5812 5812 5812 5812 5813 5814 5815 5817 5819 5821 5822 5824 5826 5829 5832 5836 5839 5841 5844 5847 5850 5853 5856 5859 5861 5865 5868 5871 5874 5876 5879 5881 5883 5886 5888 5890 5892 5894 5896 5897 5898 5899 5900 5901 5901 5901 5902 5902 5902 5904 5906 5906 5907 5909 5909 5910 5911 5912 5913 5914 5915 5916 5917 5918 5919 5920 5921 5921 5923 5924 5926 5928 5929
5829 5827 5825 5823 5821 5819 5817 5816 5814 5813 5812 5811 5810 5810 5809 5809 5809 5809 5809 5810 5811 5812 5814 5816 5817 5819 5821 5823 5825 5828 5832 5835 5837 5840 5843 5846 5850 5853 5856 5858 5861 5865 5868 5871 5874 5877 5879 5882 5884 5887 5889 5891 5893 5894 5895 5897 5898 5899 5900 5899 5899 5900 5901 5902 5905 5906 5906 5907 5908 5909 5910 5911 5912 5913 5914 5915 5916 5917 5918 5919 5921 5921 5922 5923 5924 5926 5928 5929
5827 5824 5823 5821 5819 5817 5815 5813 5812 5811 5809 5809 5808 5807 5807 5807 5806 5807 5807 5807 5808 5809 5811 5812 5814 5816 5818 5820 5822 5825 5828 5831 5834 5837 5840 5843 5846 5850 5853 5855 5859 5862 5865 5868 5871 5874 5876 5879 5883 5886 5888 5890 5891 5893 5894 5896 5897 5898 5899 5898 5897 5898 5899 5901 5904 5905 5905 5906 5907 5908 5909 5910 5911 5913 5914 5915 5916 5917 5919 5920 5921 5921 5922 5923 5924 5926 5928 5929
5825 5823 5821 5819 5817 5815 5813 5811 5809 5808 5807 5806 5805 5805 5804 5804 5804 5804 5804 5805 5805 5806 5808 5809 5811 5813 5815 5817 5819 5822 5825 5828 5831 5834 5837 5840 5844 5847 5850 5854 5857 5860 5863 5865 5868 5871 5873 5877 5882 5885 5887 5889 5891 5893 5894 5895 5896 5896 5898 5897 5896 5897 5899 5901 5903 5904 5905 5906 5906 5907 5908 5910 5911 5912 5913 5914 5915 5917 5918 5919 5920 5921 5922 5923 5924 5925 5927 5928
5823 5821 5819 5817 5815 5813 5811 5809 5807 5805 5804 5803 5802 5802 5802 5801 5801 5801 5802 5802 5803 5804 5805 5806 5808 5810 5811 5814 5817 5819 5822 5825 5828 5831 5835 5838 5841 5845 5848 5851 5855 5858 5860 5862 5865 5868 5871 5875 5879 5881 5883 5887 5890 5892 5893 5893 5894 5894 5895 5896 5895 5897 5899 5901 5902 5903 5904 5905 5906 5906 5907 5909 5910 5911 5913 5913 5915 5916 5918 5919 5920 5921 5922 5923 5924 5925 5927 5928
5821 5819 5817 5815 5813 5811 5809 5806 5805 5803 5802 5801 5800 5799 5799 5799 5799 5799 5799 5800 5801 5801 5802 5803 5805 5807 5809 5812 5814 5817 5820 5822 5825 5829 5832 5835 5839 5842 5845 5849 5852 5855 5857 5859 5862 5865 5869 5873 5876 5878 5882 5886 5890 5891 5891 5891 5893 5893 5893 5894 5895 5896 5898 5900 5901 5902 5903 5904 5905 5906 5907 5908 5909 5911 5912 5913 5914 5916 5917 5919 5920 5921 5922 5923 5924 5925 5927 5928
5820 5818 5816 5813 5811 5809 5807 5804 5803 5801 5800 5798 5798 5797 5796 5796 5796 5796 5797 5797 5798 5799 5800 5801 5803 5805 5807 5809 5812 5814 5817 5820 5822 5826 5829 5833 5836 5839 5842 5846 5849 5852 5855 5857 5859 5863 5867 5870 5873 5877 5881 5885 5887 5887 5888 5890 5892 5892 5893 5894 5893 5895 5896 5898 5900 5901 5903 5903 5904 5905 5904 5905 5908 5910 5912 5913 5914 5916 5917 5919 5920 5922 5922 5923 5924 5925 5927 5928
5818 5816 5814 5812 5809 5807 5805 5803 5801 5799 5798 5796 5795 5794 5794 5793 5793 5794 5794 5795 5796 5797 5798 5799 5801 5803 5804 5807 5809 5812 5814 5817 5820 5823 5827 5830 5834 5836 5839 5843 5847 5850 5852 5854 5857 5861 5865 5867 5872 5875 5877 5881 5883 5885 5887 5889 5890 5891 5892 5893 5893 5895 5895 5896 5899 5900 5901 5903 5904 5904 5903 5905 5908 5910 5912 5913 5914 5915 5916 5918 5919 5921 5922 5923 5924 5925 5926 5928
5817 5815 5812 5810 5808 5805 5803 5801 5799 5797 5796 5794 5793 5792 5791 5791 5791 5791 5792 5793 5794 5795 5796 5797 5799 5801 5802 5805 5806 5809 5812 5815 5818 5822 5825 5828 5831 5833 5837 5841 5844 5847 5850 5853 5856 5859 5862 5866 5870 5871 5874 5878 5881 5884 5886 5887 5890 5891 5891 5892 5893 5894 5895 5895 5897 5899 5901 5902 5903 5904 5905 5906 5908 5910 5911 5913 5914 5915 5916 5917 5918 5920 5921 5922 5923 5924 5926 5928
5815 5813 5811 5808 5806 5803 5801 5799 5797 5795 5794 5792 5791 5790 5789 5789 5789 5789 5790 5791 5792 5793 5795 5796 5798 5799 5801 5802 5804 5807 5810 5813 5816 5819 5822 5825 5828 5832 5836 5839 5841 5844 5848 5851 5855 5858 5861 5864 5866 5868 5871 5875 5878 5882 5884 5886 5889 5890 5890 5892 5893 5893 5895 5896 5896 5898 5900 5901 5902 5903 5905 5906 5907 5909 5911 5911 5913 5914 5915 5916 5918 5919 5920 5921 5923 5924 5925 5927
5814 5811 5809 5807 5804 5802 5800 5798 5796 5794 5792 5790 5789 5788 5787 5787 5787 5788 5788 5789 5790 5792 5793 5795 5796 5798 5799 5801 5803 5805 5808 5811 5814 5817 5820 5822 5826 5830 5833 5836 5839 5843 5846 5849 5852 5856 5859 5860 5862 5866 5869 5871 5875 5879 5882 5885 5887 5888 5889 5890 5891 5893 5894 5895 5896 5897 5899 5900 5901 5903 5904 5905 5906 5908 5909 5910 5912 5913 5915 5916 5917 5919 5919 5921 5922 5923 5924 5926
5812 5810 5807 5805 5803 5800 5798 5796 5795 5793 5791 5789 5787 5786 5786 5785 5786 5786 5787 5788 5789 5790 5791 5793 5794 5796 5798 5800 5801 5804 5806 5809 5811 5814 5817 5820 5823 5827 5830 5833 5837 5841 5843 5846 5851 5853 5854 5857 5861 5865 5866 5868 5873 5877 5880 5883 5884 5886 5888 5889 5891 5892 5893 5894 5895 5897 5898 5899 5900 5902 5903 5904 5905 5906 5907 5909 5911 5912 5914 5916 5917 5918 5919 5920 5922 5923 5924 5926
5810 5808 5806 5803 5801 5799 5797 5796 5794 5792 5790 5788 5786 5785 5784 5784 5784 5785 5786 5787 5788 5789 5790 5792 5793 5794 5796 5798 5800 5803 5805 5807 5809 5812 5815 5818 5821 5825 5828 5832 5834 5836 5840 5844 5848 5849 5850 5855 5859 5861 5863 5866 5870 5874 5877 5880 5882 5884 5885 5887 5889 5891 5892 5893 5894 5896 5898 5898 5899 5900 5902 5904 5904 5905 5906 5908 5910 5911 5913 5914 5916 5918 5919 5920 5921 5922 5924 5925
5808 5806 5804 5802 5800 5798 5797 5795 5793 5791 5789 5787 5786 5785 5784 5783 5784 5784 5786 5787 5788 5789 5790 5791 5792 5794 5796 5797 5799 5801 5803 5805 5808 5811 5813 5816 5820 5823 5826 5829 5831 5834 5839 5842 5844 5845 5849 5853 5856 5858 5861 5864 5866 5871 5874 5878 5880 5881 5882 5886 5888 5889 5891 5891 5893 5895 5896 5896 5897 5899 5901 5903 5904 5903 5905 5906 5908 5910 5912 5913 5915 5917 5918 5920 5921 5922 5923 5925
5807 5805 5803 5801 5799 5797 5796 5794 5793 5791 5789 5787 5786 5785 5784 5784 5784 5785 5786 5787 5788 5788 5789 5791 5792 5793 5795 5797 5798 5799 5801 5804 5807 5809 5812 5815 5818 5821 5823 5826 5829 5832 5836 5840 5842 5843 5847 5851 5852 5856 5859 5861 5864 5867 5870 5875 5877 5877 5880 5884 5886 5887 5889 5890 5891 5893 5894 5895 5896 5898 5900 5902 5902 5902 5903 5904 5907 5910 5911 5912 5914 5916 5918 5919 5920 5922 5923 5924
5805 5803 5802 5800 5798 5797 5796 5794 5793 5791 5790 5788 5787 5786 5785 5784 5785 5786 5787 5788 5788 5789 5790 5791 5792 5793 5794 5796 5797 5799 5801 5803 5804 5807 5810 5813 5815 5818 5820 5823 5826 5829 5833 5837 5837 5838 5843 5846 5848 5852 5855 5858 5861 5863 5867 5872 5873 5874 5879 5883 5884 5886 5887 5888 5890 5890 5892 5894 5896 5898 5899 5900 5901 5902 5902 5904 5906 5908 5909 5911 5913 5915 5917 5918 5920 5921 5922 5924
5804 5802 5801 5799 5798 5797 5796 5794 5793 5792 5790 5789 5788 5787 5786 5786 5786 5787 5788 5789 5789 5790 5790 5791 5792 5793 5794 5796 5797 5799 5800 5801 5803 5806 5808 5811 5814 5816 5818 5821 5824 5827 5832 5834 5833 5835 5840 5843 5845 5849 5851 5854 5857 5860 5865 5868 5869 5873 5878 5880 5882 5885 5886 5887 5888 5888 5891 5894 5896 5897 5898 5899 5900 5900 5902 5903 5905 5906 5907 5910 5912 5914 5916 5917 5919 5920 5922 5923
5803 5801 5799 5798 5797 5796 5795 5794 5793 5792 5791 5790 5789 5788 5788 5787 5787 5789 5790 5790 5790 5790 5790 5791 5792 5793 5794 5796 5797 5798 5799 5801 5802 5805 5807 5810 5812 5815 5818 5821 5824 5827 5830 5831 5832 5835 5840 5842 5844 5846 5849 5852 5855 5858 5862 5865 5867 5872 5876 5877 5880 5883 5885 5886 5887 5887 5890 5893 5894 5895 5897 5899 5899 5900 5902 5903 5904 5905 5907 5909 5911 5913 5915 5916 5918 5919 5921 5922
5801 5800 5799 5798 5797 5796 5795 5794 5793 5792 5791 5790 5790 5789 5789 5789 5789 5790 5790 5790 5790 5790 5790 5791 5792 5793 5794 5795 5796 5798 5799 5800 5802 5804 5806 5809 5811 5814 5817 5819 5822 5826 5829 5831 5832 5834 5838 5840 5842 5845 5847 5850 5854 5857 5860 5862 5866 5870 5873 5875 5878 5881 5883 5884 5885 5887 5889 5891 5893 5895 5896 5898 5898 5899 5901 5903 5904 5906 5907 5909 5910 5911 5913 5915 5917 5918 5920 5921
5800 5799 5798 5797 5796 5796 5795 5794 5793 5793 5792 5791 5790 5790 5790 5790 5790 5790 5790 5790 5791 5791 5790 5791 5792 5793 5794 5795 5796 5797 5799 5800 5802 5804 5805 5808 5810 5812 5815 5816 5820 5824 5826 5828 5829 5832 5836 5838 5840 5842 5845 5848 5851 5854 5857 5860 5864 5868 5870 5873 5876 5878 5880 5882 5885 5886 5888 5890 5892 5894 5896 5897 5898 5899 5901 5902 5904 5906 5907 5909 5909 5910 5911 5913 5914 5916 5918 5920
5799 5798 5797 5796 5796 5795 5794 5794 5793 5793 5792 5791 5791 5791 5790 5791 5791 5790 5790 5790 5791 5790 5790 5791 5792 5792 5793 5794 5795 5797 5798 5799 5801 5803 5805 5808 5810 5812 5814 5815 5819 5822 5822 5824 5827 5830 5834 5836 5838 5840 5843 5846 5849 5852 5855 5858 5862 5866 5869 5872 5874 5876 5879 5882 5884 5885 5888 5890 5890 5891 5894 5896 5898 5899 5900 5902 5903 5905 5907 5908 5909 5910 5910 5911 5912 5914 5916 5918
5798 5796 5796 5795 5795 5795 5794 5794 5793 5793 5792 5792 5791 5791 5791 5791 5791 5790 5790 5790 5790 5790 5791 5791 5791 5792 5793 5794 5795 5796 5797 5799 5801 5802 5804 5807 5809 5810 5811 5813 5816 5819 5820 5824 5826 5827 5831 5833 5834 5838 5840 5843 5847 5850 5852 5855 5860 5863 5866 5869 5872 5875 5878 5880 5881 5883 5886 5887 5887 5889 5892 5895 5897 5899 5900 5901 5902 5904 5906 5907 5908 5909 5909 5910 5911 5912 5914 5916
5797 5795 5795 5794 5794 5794 5794 5793 5793 5792 5792 5792 5792 5792 5792 5791 5791 5791 5790 5790 5790 5790 5791 5791 5791 5792 5793 5794 5795 5795 5797 5798 5800 5802 5803 5805 5806 5807 5809 5811 5814 5816 5818 5822 5823 5826 5831 5832 5832 5836 5839 5841 5845 5848 5849 5854 5858 5860 5863 5866 5869 5872 5874 5876 5878 5880 5882 5884 5885 5888 5890 5893 5896 5896 5898 5900 5901 5903 5904 5906 5908 5908 5909 5909 5909 5911 5913 5915
5796 5794 5794 5793 5793 5793 5793 5793 5793 5792 5792 5792 5792 5792 5792 5791 5791 5791 5790 5790 5790 5790 5791 5792 5792 5793 5793 5794 5795 5795 5797 5798 5800 5801 5803 5804 5805 5806 5808 5810 5812 5814 5816 5818 5820 5823 5828 5829 5830 5834 5837 5839 5843 5845 5847 5851 5854 5856 5860 5864 5866 5869 5871 5873 5876 5878 5880 5882 5883 5886 5888 5891 5893 5893 5895 5898 5899 5901 5903 5904 5906 5908 5908 5909 5909 5910 5912 5914
5794 5793 5793 5792 5793 5793 5793 5793 5792 5792 5791 5791 5791 5791 5791 5791 5791 5791 5790 5790 5790 5790 5791 5792 5792 5792 5793 5795 5795 5795 5797 5798 5800 5801 5802 5803 5804 5805 5807 5808 5810 5812 5814 5817 5819 5822 5826 5829 5829 5832 5835 5837 5840 5843 5844 5847 5850 5852 5857 5860 5862 5865 5869 5871 5874 5876 5878 5880 5882 5883 5886 5890 5891 5891 5894 5896 5897 5899 5901 5902 5905 5906 5907 5908 5908 5910 5911 5912
5793 5792 5791 5791 5792 5792 5792 5792 5792 5791 5791 5791 5791 5791 5791 5790 5790 5790 5790 5790 5790 5790 5790 5791 5792 5792 5793 5795 5795 5795 5797 5798 5800 5801 5802 5803 5803 5804 5806 5807 5809 5811 5813 5815 5818 5820 5825 5829 5829 5829 5832 5835 5837 5840 5843 5845 5848 5850 5854 5857 5858 5863 5866 5868 5871 5875 5876 5879 5880 5881 5885 5888 5888 5889 5892 5895 5896 5898 5899 5901 5903 5904 5906 5907 5907 5908 5909 5910
5792 5791 5790 5791 5791 5791 5791 5791 5791 5791 5791 5790 5790 5790 5790 5790 5790 5789 5789 5790 5789 5790 5790 5791 5791 5792 5792 5794 5794 5795 5796 5798 5799 5800 5801 5802 5803 5804 5805 5806 5808 5810 5812 5814 5817 5820 5823 5826 5829 5828 5829 5833 5835 5838 5841 5843 5844 5847 5851 5854 5856 5860 5862 5864 5868 5871 5873 5875 5877 5879 5883 5884 5884 5887 5891 5894 5895 5896 5898 5900 5902 5903 5904 5905 5906 5907 5907 5908
5791 5790 5790 5790 5790 5790 5790 5790 5790 5790 5790 5790 5789 5789 5790 5789 5789 5789 5789 5789 5789 5789 5790 5790 5791 5791 5792 5793 5794 5795 5796 5797 5798 5799 5800 5801 5802 5803 5804 5805 5807 5808 5810 5813 5815 5818 5820 5823 5827 5827 5829 5833 5834 5835 5839 5839 5841 5845 5848 5852 5854 5857 5859 5861 5864 5867 5869 5872 5874 5877 5879 5880 5882 5885 5889 5891 5893 5894 5896 5898 5900 5901 5902 5903 5904 5905 5906 5907
5790 5789 5789 5789 5789 5789 5789 5789 5789 5789 5789 5789 5789 5789 5789 5789 5788 5788 5788 5788 5788 5789 5789 5790 5790 5791 5792 5792 5793 5795 5796 5797 5798 5798 5799 5800 5801 5802 5803 5804 5806 5807 5809 5811 5813 5815 5818 5820 5823 5825 5829 5831 5830 5831 5835 5837 5838 5843 5846 5849 5852 5854 5857 5859 5863 5866 5868 5870 5871 5874 5876 5876 5880 5884 5885 5888 5890 5892 5894 5896 5898 5899 5900 5901 5902 5903 5904 5905
5789 5788 5788 5787 5787 5788 5788 5788 5788 5788 5788 5788 5788 5788 5788 5788 5788 5788 5788 5788 5788 5788 5788 5789 5790 5790 5791 5792 5793 5794 5795 5796 5797 5798 5799 5800 5800 5801 5802 5803 5804 5805 5807 5809 5811 5813 5816 5818 5821 5823 5826 5826 5826 5829 5833 5835 5837 5841 5844 5846 5847 5851 5854 5857 5861 5864 5865 5866 5868 5871 5873 5874 5878 5882 5883 5885 5887 5889 5891 5893 5895 5897 5898 5899 5900 5901 5903 5904
5788 5787 5786 5786 5786 5786 5787 5787 5787 5787 5787 5787 5787 5787 5787 5787 5787 5787 5787 5787 5788 5788 5788 5788 5789 5790 5790 5791 5792 5793 5794 5795 5796 5797 5798 5799 5800 5801 5801 5802 5803 5804 5806 5807 5809 5811 5814 5816 5818 5821 5823 5825 5827 5829 5831 5833 5835 5837 5840 5841 5843 5847 5850 5852 5856 5859 5860 5863 5865 5868 5870 5872 5875 5878 5880 5882 5885 5886 5888 5890 5892 5894 5896 5897 5899 5900 5902 5903
5786 5786 5785 5785 5785 5785 5785 5785 5785 5785 5785 5786 5786 5786 5786 5786 5787 5786 5786 5787 5787 5787 5787 5787 5788 5788 5789 5790 5791 5792 5792 5793 5794 5795 5796 5797 5798 5800 5801 5802 5802 5803 5804 5805 5807 5809 5811 5813 5816 5819 5822 5824 5825 5827 5829 5831 5832 5834 5836 5838 5840 5844 5847 5849 5853 5855 5857 5860 5862 5865 5867 5868 5871 5875 5877 5879 5881 5883 5885 5887 5889 5891 5893 5895 5897 5898 5900 5901
5785 5784 5784 5783 5783 5783 5783 5784 5784 5784 5784 5784 5784 5785 5785 5785 5785 5785 5786 5786 5786 5786 5786 5786 5787 5787 5788 5789 5789 5790 5791 5791 5792 5793 5794 5795 5797 5798 5799 5800 5801 5802 5803 5804 5805 5807 5809 5811 5813 5816 5818 5820 5821 5822 5825 5827 5830 5831 5834 5836 5839 5842 5844 5847 5850 5852 5855 5857 5858 5861 5863 5865 5868 5872 5874 5876 5878 5880 5881 5883 5885 5887 5890 5892 5894 5896 5897 5899
5783 5783 5782 5782 5782 5782 5782 5782 5782 5782 5782 5782 5783 5783 5784 5784 5784 5784 5785 5785 5785 5785 5786 5786 5786 5786 5787 5787 5788 5788 5789 5790 5791 5792 5793 5794 5795 5797 5798 5799 5800 5801 5802 5803 5804 5805 5807 5809 5811 5813 5815 5816 5817 5819 5822 5825 5827 5829 5831 5834 5837 5840 5842 5845 5847 5849 5851 5853 5855 5857 5859 5862 5865 5868 5870 5872 5874 5877 5878 5880 5882 5884 5886 5888 5890 5892 5894 5896
5782 5781 5781 5781 5781 5780 5780 5780 5781 5781 5780 5781 5781 5782 5782 5783 5783 5783 5784 5784 5784 5785 5785 5785 5785 5785 5786 5786 5787 5787 5788 5789 5790 5791 5792 5793 5794 5795 5796 5797 5798 5800 5801 5802 5803 5804 5806 5807 5808 5810 5812 5814 5816 5818 5820 5822 5825 5827 5829 5832 5834 5837 5840 5842 5844 5846 5847 5849 5851 5853 5856 5859 5861 5863 5866 5869 5871 5874 5876 5877 5878 5880 5883 5885 5886 5888 5890 5892
5780 5779 5779 5779 5779 5779 5779 5779 5779 5779 5779 5779 5780 5780 5781 5781 5782 5782 5783 5783 5783 5784 5784 5784 5784 5784 5785 5785 5786 5786 5787 5788 5789 5790 5791 5792 5793 5793 5794 5795 5796 5798 5799 5801 5802 5803 5804 5805 5806 5808 5810 5812 5814 5816 5818 5820 5823 5825 5827 5829 5832 5834 5836 5838 5841 5842 5844 5846 5847 5850 5852 5854 5856 5859 5862 5865 5867 5870 5873 5874 5876 5877 5880 5882 5882 5884 5886 5889
5778 5778 5777 5777 5777 5777 5777 5777 5777 5777 5778 5778 5778 5779 5779 5780 5781 5781 5781 5782 5782 5782 5783 5783 5783 5783 5784 5784 5785 5785 5786 5787 5788 5788 5789 5790 5791 5792 5793 5793 5794 5796 5797 5799 5800 5801 5802 5803 5805 5807 5808 5810 5812 5814 5817 5819 5821 5823 5824 5827 5830 5831 5832 5834 5837 5839 5840 5842 5844 5847 5849 5851 5852 5855 5858 5861 5864 5867 5869 5872 5873 5874 5876 5878 5879 5881 5883 5885
5776 5776 5775 5775 5775 5775 5775 5775 5776 5776 5776 5777 5777 5778 5778 5779 5779 5780 5780 5780 5781 5781 5781 5782 5782 5782 5783 5783 5783 5784 5785 5785 5786 5787 5788 5789 5789 5790 5791 5792 5793 5794 5795 5796 5798 5799 5800 5802 5803 5805 5807 5808 5809 5811 5814 5816 5819 5820 5821 5823 5826 5827 5828 5830 5833 5835 5837 5839 5842 5844 5845 5847 5849 5852 5855 5857 5860 5863 5866 5868 5870 5872 5873 5874 5876 5877 5879 5882
5774 5774 5774 5774 5773 5773 5773 5774 5774 5775 5775 5775 5776 5777 5777 5777 5778 5779 5779 5779 5780 5780 5780 5780 5781 5781 5781 5782 5782 5783 5784 5784 5785 5785 5786 5787 5788 5788 5789 5790 5791 5791 5793 5794 5796 5796 5798 5800 5801 5802 5804 5805 5807 5809 5811 5813 5816 5818 5817 5819 5822 5823 5825 5827 5830 5832 5834 5836 5839 5840 5841 5843 5846 5849 5851 5854 5856 5859 5862 5864 5867 5869 5870 5871 5873 5874 5876 5878